Time,TemperatureF,DewpointF,PressureIn,WindDirection,WindDirectionDegrees,WindSpeedMPH,WindSpeedGustMPH,Humidity,HourlyPrecipIn,Conditions,Clouds,dailyrainin,SoftwareType,DateUTC
2013-03-17 00:00:00,41.2,34.8,29.47,SW,234,2.7,2.7,78,0.00,,---,0.00,VWS V14.01,2013-03-17 07:00:00,
2013-03-17 00:05:00,41.0,34.7,29.50,SW,227,5.4,5.4,78,0.00,,---,0.00,VWS V14.01,2013-03-17 07:05:00,
2013-03-17 00:10:00,41.0,34.7,29.50,West,273,4.9,4.9,78,0.00,,---,0.00,VWS V14.01,2013-03-17 07:10:00,
2013-03-17 00:15:00,40.8,34.5,29.50,West,276,3.6,3.6,78,0.00,,---,0.00,VWS V14.01,2013-03-17 07:15:00,
2013-03-17 00:20:00,40.8,34.5,29.50,WSW,237,4.0,4.0,78,0.00,,---,0.00,VWS V14.01,2013-03-17 07:20:00,
2013-03-17 00:25:00,40.8,34.5,29.50,SSW,193,5.4,5.4,78,0.00,,---,0.00,VWS V14.01,2013-03-17 07:25:00,
2013-03-17 00:30:00,40.8,34.5,29.50,West,268,5.8,5.8,78,0.00,,---,0.00,VWS V14.01,2013-03-17 07:30:00,
2013-03-17 00:35:00,40.8,34.5,29.50,SSW,198,5.8,5.8,78,0.00,,---,0.00,VWS V14.01,2013-03-17 07:35:00,
2013-03-17 00:40:00,40.8,34.5,29.50,SW,223,2.7,2.7,78,0.00,,---,0.00,VWS V14.01,2013-03-17 07:40:00,
2013-03-17 00:45:00,40.8,34.5,29.50,South,189,4.0,4.0,78,0.00,,---,0.00,VWS V14.01,2013-03-17 07:45:00,
2013-03-17 00:50:00,40.8,34.5,29.50,SW,235,2.7,5.8,78,0.00,,---,0.00,VWS V14.01,2013-03-17 07:50:00,
2013-03-17 00:55:00,40.8,34.5,29.50,SSW,207,0.0,0.0,78,0.00,,---,0.00,VWS V14.01,2013-03-17 07:55:00,
2013-03-17 01:00:00,40.6,34.7,29.50,West,276,2.2,3.6,79,0.00,,---,0.00,VWS V14.01,2013-03-17 08:00:00,
2013-03-17 01:05:00,40.6,34.7,29.50,West,268,5.4,5.4,79,0.00,,---,0.00,VWS V14.01,2013-03-17 08:05:00,
2013-03-17 01:10:00,40.6,34.7,29.50,South,173,3.1,3.1,79,0.00,,---,0.00,VWS V14.01,2013-03-17 08:10:00,
2013-03-17 01:15:00,40.6,34.7,29.50,SW,229,4.0,230.9,79,0.00,,---,0.00,VWS V14.01,2013-03-17 08:15:00,
2013-03-17 01:20:00,40.6,34.7,29.50,SSW,197,2.2,4.9,79,0.00,,---,0.00,VWS V14.01,2013-03-17 08:20:00,
2013-03-17 01:25:00,40.5,34.5,29.50,West,275,4.0,4.0,79,0.00,,---,0.00,VWS V14.01,2013-03-17 08:25:00,
2013-03-17 01:30:00,40.5,34.5,29.50,South,189,3.6,3.6,79,0.00,,---,0.00,VWS V14.01,2013-03-17 08:30:00,
2013-03-17 01:35:00,40.3,34.3,29.50,SW,223,5.8,5.8,79,0.00,,---,0.00,VWS V14.01,2013-03-17 08:35:00,
2013-03-17 01:40:00,40.3,34.3,29.50,West,265,3.6,3.6,79,0.00,,---,0.00,VWS V14.01,2013-03-17 08:40:00,
2013-03-17 01:45:00,40.3,34.3,29.50,SSW,198,3.6,3.6,79,0.00,,---,0.00,VWS V14.01,2013-03-17 08:45:00,
2013-03-17 01:50:00,40.3,34.3,29.53,South,186,4.9,4.9,79,0.00,,---,0.00,VWS V14.01,2013-03-17 08:50:00,
2013-03-17 01:55:00,40.3,34.6,29.53,WSW,256,0.0,2.2,80,0.00,,---,0.00,VWS V14.01,2013-03-17 08:55:00,
2013-03-17 02:00:00,40.3,34.6,29.53,SW,235,2.2,2.2,80,0.00,,---,0.00,VWS V14.01,2013-03-17 09:00:00,
2013-03-17 02:05:00,40.1,34.4,29.53,SSE,165,0.0,0.0,80,0.00,,---,0.00,VWS V14.01,2013-03-17 09:05:00,
2013-03-17 02:10:00,40.1,34.4,29.53,SE,145,0.0,0.0,80,0.00,,---,0.00,VWS V14.01,2013-03-17 09:10:00,
2013-03-17 02:15:00,39.9,34.6,29.53,SE,145,0.0,0.0,81,0.00,,---,0.00,VWS V14.01,2013-03-17 09:15:00,
2013-03-17 02:20:00,39.9,34.6,29.53,SSE,152,0.0,0.0,81,0.00,,---,0.00,VWS V14.01,2013-03-17 09:20:00,
2013-03-17 02:25:00,39.7,34.4,29.53,WSW,257,0.0,0.0,81,0.00,,---,0.00,VWS V14.01,2013-03-17 09:25:00,
2013-03-17 02:30:00,39.6,34.2,29.53,SW,228,2.7,2.7,81,0.00,,---,0.00,VWS V14.01,2013-03-17 09:30:00,
2013-03-17 02:35:00,39.6,34.2,29.53,SSE,147,0.0,0.0,81,0.00,,---,0.00,VWS V14.01,2013-03-17 09:35:00,
2013-03-17 02:40:00,39.4,34.3,29.53,SSE,147,0.0,0.0,82,0.00,,---,0.00,VWS V14.01,2013-03-17 09:40:00,
2013-03-17 02:45:00,39.4,34.3,29.53,SW,224,0.0,4.0,82,0.00,,---,0.00,VWS V14.01,2013-03-17 09:45:00,
2013-03-17 02:50:00,39.2,34.2,29.53,SW,224,0.0,0.0,82,0.00,,---,0.00,VWS V14.01,2013-03-17 09:50:00,
2013-03-17 02:55:00,38.8,34.1,29.53,SW,224,0.0,0.0,83,0.00,,---,0.00,VWS V14.01,2013-03-17 09:55:00,
2013-03-17 03:00:00,38.7,34.0,29.53,SW,224,0.0,0.0,83,0.00,,---,0.00,VWS V14.01,2013-03-17 10:00:00,
2013-03-17 03:05:00,38.5,34.1,29.53,SW,224,0.0,0.0,84,0.00,,---,0.00,VWS V14.01,2013-03-17 10:05:00,
2013-03-17 03:10:00,38.7,34.2,29.53,SW,218,3.1,3.1,84,0.00,,---,0.00,VWS V14.01,2013-03-17 10:10:00,
2013-03-17 03:15:00,38.7,34.2,29.53,SW,217,0.0,0.0,84,0.00,,---,0.00,VWS V14.01,2013-03-17 10:15:00,
2013-03-17 03:20:00,38.1,33.7,29.53,SE,142,0.0,0.0,84,0.00,,---,0.00,VWS V14.01,2013-03-17 10:20:00,
2013-03-17 03:25:00,38.1,34.0,29.53,SE,142,0.0,0.0,85,0.00,,---,0.00,VWS V14.01,2013-03-17 10:25:00,
2013-03-17 03:29:00,38.1,34.0,29.53,East,101,0.0,0.0,85,0.00,,---,0.00,VWS V14.01,2013-03-17 10:29:00,
2013-03-17 03:34:00,37.9,33.8,29.56,East,101,0.0,0.0,85,0.00,,---,0.00,VWS V14.01,2013-03-17 10:34:00,
2013-03-17 03:39:00,37.9,33.8,29.56,East,101,0.0,0.0,85,0.00,,---,0.00,VWS V14.01,2013-03-17 10:39:00,
2013-03-17 03:44:00,37.6,33.5,29.56,West,263,0.0,0.0,85,0.00,,---,0.00,VWS V14.01,2013-03-17 10:44:00,
2013-03-17 03:49:00,37.6,33.5,29.56,WSW,257,3.6,3.6,85,0.00,,---,0.00,VWS V14.01,2013-03-17 10:49:00,
2013-03-17 03:54:00,37.6,33.5,29.56,WSW,250,0.0,0.0,85,0.00,,---,0.00,VWS V14.01,2013-03-17 10:54:00,
2013-03-17 03:59:00,37.6,33.5,29.56,SSW,204,0.0,0.0,85,0.00,,---,0.00,VWS V14.01,2013-03-17 10:59:00,
2013-03-17 04:04:00,37.6,33.5,29.56,West,264,0.0,0.0,85,0.00,,---,0.00,VWS V14.01,2013-03-17 11:04:00,
2013-03-17 04:09:00,37.9,34.1,29.56,West,264,0.0,0.0,86,0.00,,---,0.00,VWS V14.01,2013-03-17 11:09:00,
2013-03-17 04:14:00,38.1,34.3,29.56,West,264,2.7,2.7,86,0.00,,---,0.00,VWS V14.01,2013-03-17 11:14:00,
2013-03-17 04:19:00,38.5,34.7,29.56,SW,233,0.0,0.0,86,0.00,,---,0.00,VWS V14.01,2013-03-17 11:19:00,
2013-03-17 04:24:00,38.5,34.7,29.56,SW,233,0.0,0.0,86,0.00,,---,0.00,VWS V14.01,2013-03-17 11:24:00,
2013-03-17 04:29:00,38.7,34.5,29.56,South,184,2.7,2.7,85,0.00,,---,0.00,VWS V14.01,2013-03-17 11:29:00,
2013-03-17 04:34:00,38.7,34.5,29.56,SW,230,3.6,3.6,85,0.00,,---,0.00,VWS V14.01,2013-03-17 11:34:00,
2013-03-17 04:39:00,38.8,34.7,29.56,SW,234,0.0,5.4,85,0.00,,---,0.00,VWS V14.01,2013-03-17 11:39:00,
2013-03-17 04:44:00,38.8,34.7,29.56,WNW,284,3.6,3.6,85,0.00,,---,0.00,VWS V14.01,2013-03-17 11:44:00,
2013-03-17 04:49:00,39.2,35.1,29.56,SW,236,3.6,3.6,85,0.00,,---,0.00,VWS V14.01,2013-03-17 11:49:00,
2013-03-17 04:54:00,39.2,34.8,29.56,East,100,0.0,2.7,84,0.00,,---,0.00,VWS V14.01,2013-03-17 11:54:00,
2013-03-17 04:59:00,39.2,34.8,29.56,SSE,152,2.7,2.7,84,0.00,,---,0.00,VWS V14.01,2013-03-17 11:59:00,
2013-03-17 05:04:00,39.4,35.0,29.59,SE,129,0.0,0.0,84,0.00,,---,0.00,VWS V14.01,2013-03-17 12:04:00,
2013-03-17 05:09:00,39.4,35.0,29.59,South,174,0.0,0.0,84,0.00,,---,0.00,VWS V14.01,2013-03-17 12:09:00,
2013-03-17 05:14:00,39.4,35.0,29.59,SSE,155,3.6,3.6,84,0.00,,---,0.00,VWS V14.01,2013-03-17 12:14:00,
2013-03-17 05:19:00,39.4,35.0,29.59,SSE,163,0.0,0.0,84,0.00,,---,0.00,VWS V14.01,2013-03-17 12:19:00,
2013-03-17 05:24:00,39.6,35.1,29.59,SSE,157,0.0,2.2,84,0.00,,---,0.00,VWS V14.01,2013-03-17 12:24:00,
2013-03-17 05:29:00,39.7,35.0,29.59,West,260,0.0,0.0,83,0.00,,---,0.00,VWS V14.01,2013-03-17 12:29:00,
2013-03-17 05:34:00,39.6,34.8,29.59,SE,128,2.7,3.1,83,0.00,,---,0.00,VWS V14.01,2013-03-17 12:34:00,
2013-03-17 05:39:00,39.6,34.8,29.59,SE,128,0.0,0.0,83,0.00,,---,0.00,VWS V14.01,2013-03-17 12:39:00,
2013-03-17 05:44:00,39.6,34.8,29.59,SE,130,0.0,0.0,83,0.00,,---,0.00,VWS V14.01,2013-03-17 12:44:00,
2013-03-17 05:49:00,39.6,34.8,29.59,SW,220,0.0,0.0,83,0.00,,---,0.00,VWS V14.01,2013-03-17 12:49:00,
2013-03-17 05:54:00,39.7,35.0,29.59,SSE,159,0.0,0.0,83,0.00,,---,0.00,VWS V14.01,2013-03-17 12:54:00,
2013-03-17 05:59:00,39.7,35.0,29.59,SSE,148,0.0,0.0,83,0.00,,---,0.00,VWS V14.01,2013-03-17 12:59:00,
2013-03-17 06:04:00,39.7,35.0,29.59,SSW,206,0.0,2.2,83,0.00,,---,0.00,VWS V14.01,2013-03-17 13:04:00,
2013-03-17 06:09:00,39.7,34.7,29.59,SSW,206,0.0,0.0,82,0.00,,---,0.00,VWS V14.01,2013-03-17 13:09:00,
2013-03-17 06:14:00,39.7,34.7,29.59,SSW,206,0.0,0.0,82,0.00,,---,0.00,VWS V14.01,2013-03-17 13:14:00,
2013-03-17 06:19:00,39.7,35.0,29.59,SSW,206,0.0,0.0,83,0.00,,---,0.00,VWS V14.01,2013-03-17 13:19:00,
2013-03-17 06:24:00,39.9,35.2,29.59,WSW,238,2.7,2.7,83,0.00,,---,0.00,VWS V14.01,2013-03-17 13:24:00,
2013-03-17 06:29:00,39.7,34.7,29.59,WSW,239,3.6,3.6,82,0.00,,---,0.00,VWS V14.01,2013-03-17 13:29:00,
2013-03-17 06:34:00,39.9,34.9,29.59,SSW,199,0.0,0.0,82,0.00,,---,0.00,VWS V14.01,2013-03-17 13:34:00,
2013-03-17 06:39:00,39.9,34.9,29.59,SSE,147,0.0,0.0,82,0.00,,---,0.00,VWS V14.01,2013-03-17 13:39:00,
2013-03-17 06:44:00,39.9,34.9,29.59,SW,224,6.3,6.3,82,0.00,,---,0.00,VWS V14.01,2013-03-17 13:44:00,
2013-03-17 06:49:00,39.9,34.9,29.59,WSW,244,3.6,3.6,82,0.00,,---,0.00,VWS V14.01,2013-03-17 13:49:00,
2013-03-17 06:54:00,39.9,34.6,29.62,SSW,211,2.7,2.7,81,0.00,,---,0.00,VWS V14.01,2013-03-17 13:54:00,
2013-03-17 06:59:00,39.9,34.6,29.62,SSW,201,2.7,2.7,81,0.00,,---,0.00,VWS V14.01,2013-03-17 13:59:00,
2013-03-17 07:04:00,39.9,34.6,29.62,WSW,252,2.7,2.7,81,0.00,,---,0.00,VWS V14.01,2013-03-17 14:04:00,
2013-03-17 07:09:00,39.9,34.6,29.62,SSE,155,2.2,2.2,81,0.00,,---,0.00,VWS V14.01,2013-03-17 14:09:00,
2013-03-17 07:14:00,39.9,34.6,29.62,West,268,0.0,0.0,81,0.00,,---,0.00,VWS V14.01,2013-03-17 14:14:00,
2013-03-17 07:19:00,39.9,34.6,29.62,SSE,148,5.8,5.8,81,0.00,,---,0.00,VWS V14.01,2013-03-17 14:19:00,
2013-03-17 07:24:00,39.9,34.6,29.62,SE,133,3.6,3.6,81,0.00,,---,0.00,VWS V14.01,2013-03-17 14:24:00,
2013-03-17 07:29:00,39.9,34.6,29.62,South,177,3.6,3.6,81,0.00,,---,0.00,VWS V14.01,2013-03-17 14:29:00,
2013-03-17 07:34:00,39.7,34.4,29.62,WSW,238,2.7,2.7,81,0.00,,---,0.00,VWS V14.01,2013-03-17 14:34:00,
2013-03-17 07:39:00,39.7,34.4,29.62,WSW,246,4.0,4.0,81,0.00,,---,0.00,VWS V14.01,2013-03-17 14:39:00,
2013-03-17 07:44:00,39.7,34.4,29.62,West,271,2.2,2.2,81,0.00,,---,0.00,VWS V14.01,2013-03-17 14:44:00,
2013-03-17 07:49:00,39.6,34.5,29.62,SSW,201,3.1,3.1,82,0.00,,---,0.00,VWS V14.01,2013-03-17 14:49:00,
2013-03-17 07:54:00,39.6,34.5,29.62,South,181,0.0,2.2,82,0.00,,---,0.00,VWS V14.01,2013-03-17 14:54:00,
2013-03-17 07:59:00,39.6,34.5,29.62,South,177,3.1,3.1,82,0.00,,---,0.00,VWS V14.01,2013-03-17 14:59:00,
2013-03-17 08:04:00,39.6,34.5,29.62,SW,226,4.9,4.9,82,0.00,,---,0.00,VWS V14.01,2013-03-17 15:04:00,
2013-03-17 08:09:00,39.2,34.5,29.62,South,170,5.4,5.4,83,0.00,,---,0.00,VWS V14.01,2013-03-17 15:09:00,
2013-03-17 08:14:00,39.2,34.5,29.62,WSW,251,2.2,2.2,83,0.00,,---,0.00,VWS V14.01,2013-03-17 15:14:00,
2013-03-17 08:19:00,39.2,34.5,29.62,ESE,113,0.0,0.0,83,0.00,,---,0.00,VWS V14.01,2013-03-17 15:19:00,
2013-03-17 08:24:00,39.2,34.5,29.65,East,93,2.7,2.7,83,0.00,,---,0.00,VWS V14.01,2013-03-17 15:24:00,
2013-03-17 08:29:00,39.2,34.5,29.65,SE,139,0.0,5.4,83,0.00,,---,0.00,VWS V14.01,2013-03-17 15:29:00,
2013-03-17 08:34:00,39.2,34.5,29.65,SE,139,0.0,0.0,83,0.00,,---,0.00,VWS V14.01,2013-03-17 15:34:00,
2013-03-17 08:39:00,39.2,34.5,29.65,SSE,157,0.0,0.0,83,0.00,,---,0.00,VWS V14.01,2013-03-17 15:39:00,
2013-03-17 08:44:00,39.4,34.7,29.65,NE,37,0.0,0.0,83,0.00,,---,0.00,VWS V14.01,2013-03-17 15:44:00,
2013-03-17 08:49:00,39.6,34.8,29.65,SW,220,3.6,3.6,83,0.00,,---,0.00,VWS V14.01,2013-03-17 15:49:00,
2013-03-17 08:54:00,39.7,35.0,29.65,WSW,246,2.2,2.2,83,0.00,,---,0.00,VWS V14.01,2013-03-17 15:54:00,
2013-03-17 08:59:00,39.7,35.0,29.65,SSW,210,3.6,3.6,83,0.00,,---,0.00,VWS V14.01,2013-03-17 15:59:00,
2013-03-17 09:04:00,39.7,34.7,29.65,South,169,6.3,6.3,82,0.00,,---,0.00,VWS V14.01,2013-03-17 16:04:00,
2013-03-17 09:09:00,39.7,34.7,29.65,South,172,2.2,2.2,82,0.00,,---,0.00,VWS V14.01,2013-03-17 16:09:00,
2013-03-17 09:14:00,39.7,34.4,29.65,WSW,243,2.7,2.7,81,0.00,,---,0.00,VWS V14.01,2013-03-17 16:14:00,
2013-03-17 09:19:00,39.9,34.6,29.68,SSW,198,0.0,2.7,81,0.00,,---,0.00,VWS V14.01,2013-03-17 16:19:00,
2013-03-17 09:24:00,39.9,34.6,29.68,West,275,3.6,3.6,81,0.00,,---,0.00,VWS V14.01,2013-03-17 16:24:00,
2013-03-17 09:29:00,40.1,34.8,29.68,West,272,3.6,3.6,81,0.00,,---,0.00,VWS V14.01,2013-03-17 16:29:00,
2013-03-17 09:34:00,40.1,34.8,29.68,SSW,211,2.7,2.7,81,0.00,,---,0.00,VWS V14.01,2013-03-17 16:34:00,
2013-03-17 09:39:00,40.3,34.6,29.68,NW,326,2.2,2.2,80,0.00,,---,0.00,VWS V14.01,2013-03-17 16:39:00,
2013-03-17 09:44:00,40.3,34.6,29.68,West,275,6.3,6.3,80,0.00,,---,0.00,VWS V14.01,2013-03-17 16:44:00,
2013-03-17 09:49:00,40.5,34.5,29.68,SSW,210,3.6,4.9,79,0.00,,---,0.00,VWS V14.01,2013-03-17 16:49:00,
2013-03-17 09:54:00,40.5,34.5,29.68,SW,236,0.0,0.0,79,0.00,,---,0.00,VWS V14.01,2013-03-17 16:54:00,
2013-03-17 09:59:00,40.8,34.5,29.68,SSE,164,4.9,7.2,78,0.00,,---,0.00,VWS V14.01,2013-03-17 16:59:00,
2013-03-17 10:04:00,40.8,34.5,29.68,West,265,2.2,2.2,78,0.00,,---,0.00,VWS V14.01,2013-03-17 17:04:00,
2013-03-17 10:09:00,41.0,34.7,29.68,West,259,6.3,6.3,78,0.00,,---,0.00,VWS V14.01,2013-03-17 17:09:00,
2013-03-17 10:14:00,40.8,34.5,29.68,WSW,246,4.9,4.9,78,0.00,,---,0.00,VWS V14.01,2013-03-17 17:14:00,
2013-03-17 10:19:00,40.8,34.5,29.68,SW,217,3.6,3.6,78,0.00,,---,0.00,VWS V14.01,2013-03-17 17:19:00,
2013-03-17 10:24:00,41.0,34.0,29.68,SE,138,3.6,3.6,76,0.00,,---,0.00,VWS V14.01,2013-03-17 17:24:00,
2013-03-17 10:29:00,41.2,34.2,29.68,WSW,257,4.9,4.9,76,0.00,,---,0.00,VWS V14.01,2013-03-17 17:29:00,
2013-03-17 10:34:00,41.4,34.4,29.68,NW,304,5.8,5.8,76,0.00,,---,0.00,VWS V14.01,2013-03-17 17:34:00,
2013-03-17 10:39:00,41.4,34.4,29.68,SSE,164,3.6,3.6,76,0.00,,---,0.00,VWS V14.01,2013-03-17 17:39:00,
2013-03-17 10:44:00,41.7,34.7,29.68,WSW,250,2.7,2.7,76,0.00,,---,0.00,VWS V14.01,2013-03-17 17:44:00,
2013-03-17 10:49:00,42.1,34.7,29.68,WSW,257,5.4,5.4,75,0.00,,---,0.00,VWS V14.01,2013-03-17 17:49:00,
2013-03-17 10:54:00,42.1,34.7,29.68,SW,231,3.6,3.6,75,0.00,,---,0.00,VWS V14.01,2013-03-17 17:54:00,
2013-03-17 10:59:00,42.3,34.9,29.68,South,173,3.1,3.1,75,0.00,,---,0.00,VWS V14.01,2013-03-17 17:59:00,
2013-03-17 11:04:00,42.3,34.9,29.68,SW,223,0.0,0.0,75,0.00,,---,0.00,VWS V14.01,2013-03-17 18:04:00,
2013-03-17 11:09:00,42.6,34.9,29.68,West,265,2.7,2.7,74,0.00,,---,0.00,VWS V14.01,2013-03-17 18:09:00,
2013-03-17 11:14:00,42.6,34.9,29.68,WSW,250,3.6,4.0,74,0.00,,---,0.00,VWS V14.01,2013-03-17 18:14:00,
2013-03-17 11:19:00,42.8,34.8,29.71,West,280,5.8,5.8,73,0.00,,---,0.00,VWS V14.01,2013-03-17 18:19:00,
2013-03-17 11:24:00,42.8,34.8,29.71,West,267,6.7,6.7,73,0.00,,---,0.00,VWS V14.01,2013-03-17 18:24:00,
2013-03-17 11:29:00,42.8,34.1,29.71,SW,222,3.6,4.0,71,0.00,,---,0.00,VWS V14.01,2013-03-17 18:29:00,
2013-03-17 11:34:00,42.8,34.1,29.71,WNW,282,6.3,6.3,71,0.00,,---,0.00,VWS V14.01,2013-03-17 18:34:00,
2013-03-17 11:39:00,43.5,34.4,29.71,WSW,257,6.3,6.3,70,0.00,,---,0.00,VWS V14.01,2013-03-17 18:39:00,
2013-03-17 11:44:00,43.5,34.4,29.71,WNW,291,0.0,0.0,70,0.00,,---,0.00,VWS V14.01,2013-03-17 18:44:00,
2013-03-17 11:49:00,44.1,34.6,29.71,WSW,258,3.1,3.1,69,0.00,,---,0.00,VWS V14.01,2013-03-17 18:49:00,
2013-03-17 11:54:00,44.8,34.9,29.71,SE,136,2.7,2.7,68,0.00,,---,0.00,VWS V14.01,2013-03-17 18:54:00,
2013-03-17 11:59:00,45.1,35.2,29.68,WSW,255,2.7,2.7,68,0.00,,---,0.00,VWS V14.01,2013-03-17 18:59:00,
2013-03-17 12:04:00,45.3,35.0,29.68,WSW,254,5.4,5.4,67,0.00,,---,0.00,VWS V14.01,2013-03-17 19:04:00,
2013-03-17 12:09:00,45.3,35.0,29.68,SSE,168,8.7,8.7,67,0.00,,---,0.00,VWS V14.01,2013-03-17 19:09:00,
2013-03-17 12:14:00,46.2,35.1,29.68,South,180,5.4,5.4,65,0.00,,---,0.00,VWS V14.01,2013-03-17 19:14:00,
2013-03-17 12:19:00,46.2,35.1,29.68,SE,141,2.7,2.7,65,0.00,,---,0.00,VWS V14.01,2013-03-17 19:19:00,
2013-03-17 12:24:00,47.1,35.2,29.68,WSW,243,8.7,8.7,63,0.00,,---,0.00,VWS V14.01,2013-03-17 19:24:00,
2013-03-17 12:29:00,47.8,35.1,29.68,WSW,250,4.9,4.9,61,0.00,,---,0.00,VWS V14.01,2013-03-17 19:29:00,
2013-03-17 12:34:00,47.8,34.6,29.68,West,269,8.3,8.3,60,0.00,,---,0.00,VWS V14.01,2013-03-17 19:34:00,
2013-03-17 12:39:00,47.3,33.3,29.68,NNE,26,2.7,5.4,58,0.00,,---,0.00,VWS V14.01,2013-03-17 19:39:00,
2013-03-17 12:44:00,47.3,33.3,29.68,West,261,5.8,5.8,58,0.00,,---,0.00,VWS V14.01,2013-03-17 19:44:00,
2013-03-17 12:49:00,47.3,33.3,29.68,WNW,293,3.6,3.6,58,0.00,,---,0.00,VWS V14.01,2013-03-17 19:49:00,
2013-03-17 12:54:00,47.3,33.3,29.68,South,183,10.5,10.5,58,0.00,,---,0.00,VWS V14.01,2013-03-17 19:54:00,
2013-03-17 12:59:00,47.7,33.6,29.68,WNW,282,4.0,4.0,58,0.00,,---,0.00,VWS V14.01,2013-03-17 19:59:00,
2013-03-17 13:04:00,48.2,34.1,29.68,South,190,4.0,4.0,58,0.00,,---,0.00,VWS V14.01,2013-03-17 20:04:00,
2013-03-17 13:09:00,49.3,34.7,29.68,WSW,252,7.6,7.6,57,0.00,,---,0.00,VWS V14.01,2013-03-17 20:09:00,
2013-03-17 13:14:00,49.3,34.7,29.68,SSE,161,5.8,5.8,57,0.00,,---,0.00,VWS V14.01,2013-03-17 20:14:00,
2013-03-17 13:19:00,49.6,34.2,29.68,WSW,251,6.3,6.3,55,0.00,,---,0.00,VWS V14.01,2013-03-17 20:19:00,
2013-03-17 13:24:00,49.6,34.2,29.68,WSW,239,7.2,7.2,55,0.00,,---,0.00,VWS V14.01,2013-03-17 20:24:00,
2013-03-17 13:29:00,48.0,32.2,29.68,West,274,8.3,8.3,54,0.00,,---,0.00,VWS V14.01,2013-03-17 20:29:00,
2013-03-17 13:34:00,48.0,32.6,29.68,WSW,244,7.6,7.6,55,0.00,,---,0.00,VWS V14.01,2013-03-17 20:34:00,
2013-03-17 13:39:00,48.0,32.6,29.68,West,279,4.0,4.0,55,0.00,,---,0.00,VWS V14.01,2013-03-17 20:39:00,
2013-03-17 13:44:00,47.5,32.1,29.68,SSE,168,5.4,5.4,55,0.00,,---,0.00,VWS V14.01,2013-03-17 20:44:00,
2013-03-17 13:49:00,47.5,32.1,29.68,WSW,238,5.8,5.8,55,0.00,,---,0.00,VWS V14.01,2013-03-17 20:49:00,
2013-03-17 13:54:00,49.8,33.9,29.68,SW,221,8.7,8.7,54,0.00,,---,0.00,VWS V14.01,2013-03-17 20:54:00,
2013-03-17 13:59:00,49.8,33.9,29.68,WSW,237,10.5,10.5,54,0.00,,---,0.00,VWS V14.01,2013-03-17 20:59:00,
2013-03-17 14:04:00,50.2,33.7,29.68,WSW,255,8.1,8.1,53,0.00,,---,0.00,VWS V14.01,2013-03-17 21:04:00,
2013-03-17 14:09:00,50.2,33.7,29.68,West,266,7.2,7.2,53,0.00,,---,0.00,VWS V14.01,2013-03-17 21:09:00,
2013-03-17 14:14:00,50.2,33.7,29.68,SSE,151,0.0,0.0,53,0.00,,---,0.00,VWS V14.01,2013-03-17 21:14:00,
2013-03-17 14:19:00,50.2,33.7,29.68,SSW,195,10.1,10.1,53,0.00,,---,0.00,VWS V14.01,2013-03-17 21:19:00,
2013-03-17 14:24:00,50.9,33.9,29.68,SW,234,8.1,8.1,52,0.00,,---,0.00,VWS V14.01,2013-03-17 21:24:00,
2013-03-17 14:29:00,51.4,34.4,29.68,WNW,300,2.7,8.1,52,0.00,,---,0.00,VWS V14.01,2013-03-17 21:29:00,
2013-03-17 14:34:00,51.6,34.6,29.68,SE,138,8.1,8.1,52,0.00,,---,0.00,VWS V14.01,2013-03-17 21:34:00,
2013-03-17 14:39:00,51.3,34.2,29.68,WNW,299,4.0,4.0,52,0.00,,---,0.00,VWS V14.01,2013-03-17 21:39:00,
2013-03-17 14:44:00,51.3,34.2,29.68,SSE,153,4.0,4.0,52,0.00,,---,0.00,VWS V14.01,2013-03-17 21:44:00,
2013-03-17 14:49:00,50.5,33.6,29.68,SW,231,6.3,6.3,52,0.00,,---,0.00,VWS V14.01,2013-03-17 21:49:00,
2013-03-17 14:54:00,50.5,33.6,29.68,South,188,5.4,5.4,52,0.00,,---,0.00,VWS V14.01,2013-03-17 21:54:00,
2013-03-17 14:59:00,51.1,33.6,29.68,SSW,207,6.3,6.3,51,0.00,,---,0.00,VWS V14.01,2013-03-17 21:59:00,
2013-03-17 15:04:00,50.2,32.8,29.68,South,185,3.6,4.9,51,0.00,,---,0.00,VWS V14.01,2013-03-17 22:04:00,
2013-03-17 15:09:00,49.8,32.9,29.68,NW,321,5.4,5.4,52,0.00,,---,0.00,VWS V14.01,2013-03-17 22:09:00,
2013-03-17 15:14:00,49.3,32.9,29.68,SW,225,4.0,4.0,53,0.00,,---,0.00,VWS V14.01,2013-03-17 22:14:00,
2013-03-17 15:19:00,49.3,32.9,29.68,WNW,283,5.4,5.4,53,0.00,,---,0.00,VWS V14.01,2013-03-17 22:19:00,
2013-03-17 15:24:00,48.9,32.6,29.68,South,170,3.1,3.1,53,0.00,,---,0.00,VWS V14.01,2013-03-17 22:24:00,
2013-03-17 15:29:00,48.9,32.6,29.68,South,177,4.0,5.4,53,0.00,,---,0.00,VWS V14.01,2013-03-17 22:29:00,
2013-03-17 15:34:00,49.6,33.2,29.68,SW,218,4.0,4.0,53,0.00,,---,0.00,VWS V14.01,2013-03-17 22:34:00,
2013-03-17 15:39:00,49.6,33.2,29.68,SE,144,5.4,5.4,53,0.00,,---,0.00,VWS V14.01,2013-03-17 22:39:00,
2013-03-17 15:44:00,49.5,33.1,29.68,SSW,192,6.3,6.3,53,0.00,,---,0.00,VWS V14.01,2013-03-17 22:44:00,
2013-03-17 15:49:00,49.6,33.2,29.68,SW,217,7.6,7.6,53,0.00,,---,0.00,VWS V14.01,2013-03-17 22:49:00,
2013-03-17 15:54:00,49.1,32.2,29.68,WSW,249,4.9,4.9,52,0.00,,---,0.00,VWS V14.01,2013-03-17 22:54:00,
2013-03-17 15:59:00,49.1,32.2,29.68,South,189,8.3,8.3,52,0.00,,---,0.00,VWS V14.01,2013-03-17 22:59:00,
2013-03-17 16:04:00,48.4,31.6,29.68,North,0,8.1,8.1,52,0.00,,---,0.00,VWS V14.01,2013-03-17 23:04:00,
2013-03-17 16:09:00,48.6,31.8,29.68,WNW,296,2.7,2.7,52,0.00,,---,0.00,VWS V14.01,2013-03-17 23:09:00,
2013-03-17 16:14:00,48.6,31.8,29.68,West,272,5.8,5.8,52,0.00,,---,0.00,VWS V14.01,2013-03-17 23:14:00,
2013-03-17 16:19:00,48.4,31.6,29.68,WNW,283,8.3,8.3,52,0.00,,---,0.00,VWS V14.01,2013-03-17 23:19:00,
2013-03-17 16:24:00,48.4,31.6,29.68,West,266,10.5,10.5,52,0.00,,---,0.00,VWS V14.01,2013-03-17 23:24:00,
2013-03-17 16:29:00,47.8,31.5,29.68,NW,305,5.8,8.3,53,0.00,,---,0.00,VWS V14.01,2013-03-17 23:29:00,
2013-03-17 16:34:00,47.5,31.7,29.68,NW,317,10.5,10.5,54,0.00,,---,0.00,VWS V14.01,2013-03-17 23:34:00,
2013-03-17 16:39:00,47.5,31.7,29.68,WSW,254,4.0,4.0,54,0.00,,---,0.00,VWS V14.01,2013-03-17 23:39:00,
2013-03-17 16:44:00,47.5,31.7,29.68,SSE,163,2.2,2.2,54,0.00,,---,0.00,VWS V14.01,2013-03-17 23:44:00,
2013-03-17 16:49:00,47.5,32.1,29.68,West,269,4.0,4.0,55,0.00,,---,0.00,VWS V14.01,2013-03-17 23:49:00,
2013-03-17 16:54:00,47.5,32.1,29.68,WSW,243,2.7,2.7,55,0.00,,---,0.00,VWS V14.01,2013-03-17 23:54:00,
2013-03-17 16:59:00,47.5,32.6,29.68,SSW,195,5.8,5.8,56,0.00,,---,0.00,VWS V14.01,2013-03-17 23:59:00,
2013-03-17 17:04:00,47.3,32.4,29.68,WNW,288,4.0,4.0,56,0.00,,---,0.00,VWS V14.01,2013-03-18 00:04:00,
2013-03-17 17:09:00,47.3,32.4,29.68,SW,226,7.2,7.2,56,0.00,,---,0.00,VWS V14.01,2013-03-18 00:09:00,
2013-03-17 17:14:00,47.1,32.2,29.68,WSW,253,6.3,6.3,56,0.00,,---,0.00,VWS V14.01,2013-03-18 00:14:00,
2013-03-17 17:19:00,47.1,32.2,29.68,SE,130,5.8,5.8,56,0.00,,---,0.00,VWS V14.01,2013-03-18 00:19:00,
2013-03-17 17:24:00,46.4,31.6,29.68,SW,218,6.3,6.3,56,0.00,,---,0.00,VWS V14.01,2013-03-18 00:24:00,
2013-03-17 17:29:00,46.4,31.6,29.68,West,273,3.6,3.6,56,0.00,,---,0.00,VWS V14.01,2013-03-18 00:29:00,
2013-03-17 17:34:00,46.4,31.6,29.68,WSW,250,5.8,5.8,56,0.00,,---,0.00,VWS V14.01,2013-03-18 00:34:00,
2013-03-17 17:39:00,46.2,31.8,29.68,NW,315,2.7,2.7,57,0.00,,---,0.00,VWS V14.01,2013-03-18 00:39:00,
2013-03-17 17:44:00,46.0,31.7,29.68,West,279,5.8,5.8,57,0.00,,---,0.00,VWS V14.01,2013-03-18 00:44:00,
2013-03-17 17:49:00,45.9,31.9,29.68,East,97,4.0,4.0,58,0.00,,---,0.00,VWS V14.01,2013-03-18 00:49:00,
2013-03-17 17:54:00,45.9,31.9,29.68,WNW,289,0.0,0.0,58,0.00,,---,0.00,VWS V14.01,2013-03-18 00:54:00,
2013-03-17 17:59:00,45.9,31.9,29.68,SSE,151,3.6,3.6,58,0.00,,---,0.00,VWS V14.01,2013-03-18 00:59:00,
2013-03-17 18:04:00,45.9,31.9,29.68,WSW,241,3.1,4.9,58,0.00,,---,0.00,VWS V14.01,2013-03-18 01:04:00,
2013-03-17 18:09:00,45.5,31.2,29.68,SW,218,9.6,9.6,57,0.00,,---,0.00,VWS V14.01,2013-03-18 01:09:00,
2013-03-17 18:14:00,45.5,31.2,29.68,SE,138,3.1,3.1,57,0.00,,---,0.00,VWS V14.01,2013-03-18 01:14:00,
2013-03-17 18:19:00,45.5,31.2,29.68,SSW,194,5.8,5.8,57,0.00,,---,0.00,VWS V14.01,2013-03-18 01:19:00,
2013-03-17 18:24:00,45.5,31.2,29.68,WSW,253,6.3,6.3,57,0.00,,---,0.00,VWS V14.01,2013-03-18 01:24:00,
2013-03-17 18:29:00,45.5,31.2,29.68,WSW,247,7.6,7.6,57,0.00,,---,0.00,VWS V14.01,2013-03-18 01:29:00,
2013-03-17 18:34:00,45.5,31.2,29.68,WNW,283,5.8,5.8,57,0.00,,---,0.00,VWS V14.01,2013-03-18 01:34:00,
2013-03-17 18:39:00,44.6,30.8,29.68,WNW,285,4.0,4.0,58,0.00,,---,0.00,VWS V14.01,2013-03-18 01:39:00,
2013-03-17 18:44:00,44.6,31.2,29.68,SSE,168,3.6,3.6,59,0.00,,---,0.00,VWS V14.01,2013-03-18 01:44:00,
2013-03-17 18:49:00,44.6,31.2,29.65,SSE,150,2.2,2.2,59,0.00,,---,0.00,VWS V14.01,2013-03-18 01:49:00,
2013-03-17 18:54:00,44.6,31.2,29.65,WSW,257,4.5,4.5,59,0.00,,---,0.00,VWS V14.01,2013-03-18 01:54:00,
2013-03-17 18:59:00,44.6,31.2,29.65,WSW,250,3.1,3.1,59,0.00,,---,0.00,VWS V14.01,2013-03-18 01:59:00,
2013-03-17 19:04:00,44.1,31.5,29.68,WNW,300,0.0,0.0,61,0.00,,---,0.00,VWS V14.01,2013-03-18 02:04:00,
2013-03-17 19:09:00,44.1,31.5,29.68,West,269,5.4,5.4,61,0.00,,---,0.00,VWS V14.01,2013-03-18 02:09:00,
2013-03-17 19:14:00,44.1,31.5,29.68,WSW,252,2.2,6.3,61,0.00,,---,0.00,VWS V14.01,2013-03-18 02:14:00,
2013-03-17 19:19:00,44.1,31.5,29.68,SW,222,5.8,5.8,61,0.00,,---,0.00,VWS V14.01,2013-03-18 02:19:00,
2013-03-17 19:24:00,44.1,31.5,29.68,West,269,2.7,2.7,61,0.00,,---,0.00,VWS V14.01,2013-03-18 02:24:00,
2013-03-17 19:29:00,43.5,31.4,29.68,SE,139,0.0,0.0,62,0.00,,---,0.00,VWS V14.01,2013-03-18 02:29:00,
2013-03-17 19:34:00,43.5,31.4,29.68,ESE,104,0.0,0.0,62,0.00,,---,0.00,VWS V14.01,2013-03-18 02:34:00,
2013-03-17 19:39:00,43.3,32.4,29.68,ESE,104,0.0,0.0,65,0.00,,---,0.00,VWS V14.01,2013-03-18 02:39:00,
2013-03-17 19:44:00,43.3,32.4,29.68,West,279,0.0,4.0,65,0.00,,---,0.00,VWS V14.01,2013-03-18 02:44:00,
2013-03-17 19:49:00,43.3,32.4,29.68,South,181,0.0,0.0,65,0.00,,---,0.00,VWS V14.01,2013-03-18 02:49:00,
2013-03-17 19:54:00,43.0,34.2,29.68,South,175,0.0,0.0,71,0.00,,---,0.00,VWS V14.01,2013-03-18 02:54:00,
2013-03-17 19:59:00,43.0,34.2,29.68,South,175,0.0,0.0,71,0.00,,---,0.00,VWS V14.01,2013-03-18 02:59:00,
2013-03-17 20:04:00,43.0,34.2,29.68,NE,54,0.0,0.0,71,0.00,,---,0.00,VWS V14.01,2013-03-18 03:04:00,
2013-03-17 20:09:00,42.1,35.1,29.68,SE,138,3.1,3.1,76,0.00,,---,0.00,VWS V14.01,2013-03-18 03:09:00,
2013-03-17 20:14:00,42.1,35.1,29.68,ESE,105,0.0,0.0,76,0.00,,---,0.00,VWS V14.01,2013-03-18 03:14:00,
2013-03-17 20:19:00,41.2,34.5,29.68,NNE,22,0.0,0.0,77,0.00,,---,0.00,VWS V14.01,2013-03-18 03:19:00,
2013-03-17 20:24:00,41.2,34.5,29.68,NNE,22,0.0,0.0,77,0.00,,---,0.00,VWS V14.01,2013-03-18 03:24:00,
2013-03-17 20:29:00,41.2,34.5,29.68,NNE,22,0.0,0.0,77,0.00,,---,0.00,VWS V14.01,2013-03-18 03:29:00,
2013-03-17 20:34:00,41.2,34.5,29.68,NNE,22,0.0,0.0,77,0.00,,---,0.00,VWS V14.01,2013-03-18 03:34:00,
2013-03-17 20:39:00,41.2,35.5,29.65,NNE,26,0.0,0.0,80,0.00,,---,0.00,VWS V14.01,2013-03-18 03:39:00,
2013-03-17 20:44:00,41.2,35.5,29.65,NNE,26,0.0,0.0,80,0.00,,---,0.00,VWS V14.01,2013-03-18 03:44:00,
2013-03-17 20:49:00,41.2,35.5,29.68,NNE,26,0.0,0.0,80,0.00,,---,0.00,VWS V14.01,2013-03-18 03:49:00,
2013-03-17 20:54:00,41.2,35.5,29.68,NNE,26,0.0,0.0,80,0.00,,---,0.00,VWS V14.01,2013-03-18 03:54:00,
2013-03-17 20:59:00,41.2,35.5,29.68,NNE,26,0.0,0.0,80,0.00,,---,0.00,VWS V14.01,2013-03-18 03:59:00,
2013-03-17 21:00:00,41.2,35.5,29.68,NNE,26,0.0,0.0,80,0.00,,---,0.00,VWS V14.01,2013-03-18 04:00:00,
2013-03-17 21:05:00,41.2,35.5,29.68,NNE,26,0.0,0.0,80,0.00,,---,0.00,VWS V14.01,2013-03-18 04:05:00,
2013-03-17 21:10:00,40.5,35.4,29.68,NNE,26,0.0,0.0,82,0.00,,---,0.00,VWS V14.01,2013-03-18 04:10:00,
2013-03-17 21:15:00,40.5,35.4,29.68,NNE,26,0.0,0.0,82,0.00,,---,0.00,VWS V14.01,2013-03-18 04:15:00,
2013-03-17 21:20:00,40.5,35.4,29.68,NNE,32,2.2,2.2,82,0.00,,---,0.00,VWS V14.01,2013-03-18 04:20:00,
2013-03-17 21:25:00,40.5,35.4,29.68,North,357,0.0,0.0,82,0.00,,---,0.00,VWS V14.01,2013-03-18 04:25:00,
2013-03-17 21:30:00,40.5,35.4,29.68,North,357,0.0,0.0,82,0.00,,---,0.00,VWS V14.01,2013-03-18 04:30:00,
2013-03-17 21:35:00,39.7,35.3,29.68,East,83,0.0,0.0,84,0.00,,---,0.00,VWS V14.01,2013-03-18 04:35:00,
2013-03-17 21:40:00,39.9,35.2,29.68,East,83,0.0,0.0,83,0.00,,---,0.00,VWS V14.01,2013-03-18 04:40:00,
2013-03-17 21:45:00,39.9,35.2,29.68,East,83,0.0,0.0,83,0.00,,---,0.00,VWS V14.01,2013-03-18 04:45:00,
2013-03-17 21:50:00,39.9,35.2,29.68,East,83,0.0,0.0,83,0.00,,---,0.00,VWS V14.01,2013-03-18 04:50:00,
2013-03-17 21:55:00,39.9,35.2,29.68,East,83,0.0,0.0,83,0.00,,---,0.00,VWS V14.01,2013-03-18 04:55:00,
2013-03-17 22:00:00,39.2,34.8,29.68,East,83,0.0,0.0,84,0.00,,---,0.00,VWS V14.01,2013-03-18 05:00:00,
2013-03-17 22:05:00,39.2,34.8,29.68,West,281,3.6,3.6,84,0.00,,---,0.00,VWS V14.01,2013-03-18 05:05:00,
2013-03-17 22:10:00,39.6,35.4,29.68,West,280,0.0,0.0,85,0.00,,---,0.00,VWS V14.01,2013-03-18 05:10:00,
2013-03-17 22:15:00,39.6,35.4,29.68,WNW,294,5.4,5.4,85,0.00,,---,0.00,VWS V14.01,2013-03-18 05:15:00,
2013-03-17 22:20:00,39.6,35.4,29.68,West,261,0.0,0.0,85,0.00,,---,0.00,VWS V14.01,2013-03-18 05:20:00,
2013-03-17 22:25:00,39.9,35.5,29.68,West,261,7.6,7.6,84,0.00,,---,0.00,VWS V14.01,2013-03-18 05:25:00,
2013-03-17 22:30:00,39.9,35.5,29.68,SW,214,3.6,4.0,84,0.00,,---,0.00,VWS V14.01,2013-03-18 05:30:00,
2013-03-17 22:35:00,39.9,35.5,29.68,West,264,3.1,3.1,84,0.00,,---,0.00,VWS V14.01,2013-03-18 05:35:00,
2013-03-17 22:40:00,39.9,35.5,29.68,WNW,293,3.1,3.1,84,0.00,,---,0.00,VWS V14.01,2013-03-18 05:40:00,
2013-03-17 22:45:00,39.9,35.5,29.68,SSW,204,4.0,4.0,84,0.00,,---,0.00,VWS V14.01,2013-03-18 05:45:00,
2013-03-17 22:50:00,40.3,34.9,29.68,SE,143,3.6,3.6,81,0.00,,---,0.00,VWS V14.01,2013-03-18 05:50:00,
2013-03-17 22:55:00,40.3,34.9,29.68,SSW,194,6.3,6.3,81,0.00,,---,0.00,VWS V14.01,2013-03-18 05:55:00,
2013-03-17 23:00:00,40.3,34.9,29.68,West,272,4.0,4.0,81,0.00,,---,0.00,VWS V14.01,2013-03-18 06:00:00,
2013-03-17 23:05:00,40.3,34.9,29.68,WSW,241,4.0,4.0,81,0.00,,---,0.00,VWS V14.01,2013-03-18 06:05:00,
2013-03-17 23:10:00,40.5,34.2,29.68,WSW,243,3.1,3.1,78,0.00,,---,0.00,VWS V14.01,2013-03-18 06:10:00,
2013-03-17 23:15:00,40.5,34.2,29.68,WNW,283,2.2,2.2,78,0.00,,---,0.00,VWS V14.01,2013-03-18 06:15:00,
2013-03-17 23:20:00,40.5,34.2,29.68,WSW,237,10.5,10.5,78,0.00,,---,0.00,VWS V14.01,2013-03-18 06:20:00,
2013-03-17 23:25:00,40.5,34.2,29.68,West,272,5.4,5.4,78,0.00,,---,0.00,VWS V14.01,2013-03-18 06:25:00,
2013-03-17 23:30:00,40.5,34.2,29.68,South,190,0.0,0.0,78,0.00,,---,0.00,VWS V14.01,2013-03-18 06:30:00,
2013-03-17 23:35:00,40.5,34.2,29.68,SW,235,5.8,5.8,78,0.00,,---,0.00,VWS V14.01,2013-03-18 06:35:00,
2013-03-17 23:40:00,40.5,34.2,29.68,WSW,238,2.7,2.7,78,0.00,,---,0.00,VWS V14.01,2013-03-18 06:40:00,
2013-03-17 23:45:00,40.3,33.7,29.68,SW,224,3.1,3.1,77,0.00,,---,0.00,VWS V14.01,2013-03-18 06:45:00,
2013-03-17 23:50:00,40.3,33.7,29.68,NW,308,8.1,8.1,77,0.00,,---,0.00,VWS V14.01,2013-03-18 06:50:00,
2013-03-17 23:55:00,40.3,33.7,29.68,WSW,243,3.6,3.6,77,0.00,,---,0.00,VWS V14.01,2013-03-18 06:55:00,